timestamp,wind_dir_avg,wind_spd_max_dir,wind_spd_avg,wind_spd_gust,battery_voltage,lat,long
2018-10-25 00:00:00+00:00,118.0,129.0,6.91,10.55,,47.59359,-54.27349
2018-10-25 00:10:00+00:00,124.0,138.0,4.73,8.54,,47.59359,-54.27349
2018-10-25 00:20:00+00:00,133.0,130.0,6.87,9.06,,47.59359,-54.27349
2018-10-25 00:30:00+00:00,129.0,133.0,7.4,9.27,,47.59359,-54.27349
2018-10-25 00:40:00+00:00,129.0,134.0,8.59,11.19,,47.59359,-54.27349
2018-10-25 00:50:00+00:00,138.0,134.0,6.98,8.64,,47.59359,-54.27349
2018-10-25 01:00:00+00:00,139.0,133.0,8.44,10.46,,47.59359,-54.27349
2018-10-25 01:10:00+00:00,132.0,136.0,7.73,9.74,,47.59359,-54.27349
2018-10-25 01:20:00+00:00,146.0,131.0,10.33,12.43,,47.59359,-54.27349
2018-10-25 01:30:00+00:00,147.0,146.0,10.09,11.95,,47.59359,-54.27349
2018-10-25 01:40:00+00:00,136.0,131.0,10.0,12.38,,47.59359,-54.27349
2018-10-25 01:50:00+00:00,144.0,144.0,11.17,12.52,,47.59359,-54.27349
2018-10-25 02:00:00+00:00,136.0,140.0,12.77,15.72,,47.59359,-54.27349
2018-10-25 02:10:00+00:00,139.0,142.0,11.24,14.07,,47.59359,-54.27349
2018-10-25 02:20:00+00:00,141.0,145.0,11.95,14.59,,47.59359,-54.27349
2018-10-25 02:30:00+00:00,139.0,133.0,9.85,11.64,,47.59359,-54.27349
2018-10-25 02:40:00+00:00,141.0,146.0,10.03,12.18,,47.59359,-54.27349
2018-10-25 02:50:00+00:00,138.0,141.0,10.85,12.99,,47.59359,-54.27349
2018-10-25 03:00:00+00:00,129.0,130.0,6.88,9.85,,47.59359,-54.27349
2018-10-25 03:10:00+00:00,125.0,130.0,6.61,9.06,,47.59359,-54.27349
2018-10-25 03:20:00+00:00,127.0,138.0,7.62,10.65,,47.59359,-54.27349
2018-10-25 03:30:00+00:00,109.0,119.0,5.21,8.82,,47.59359,-54.27349
2018-10-25 03:40:00+00:00,122.0,136.0,4.1,6.61,,47.59359,-54.27349
2018-10-25 03:50:00+00:00,99.0,118.0,3.91,6.0,,47.59359,-54.27349
2018-10-25 04:00:00+00:00,117.0,99.0,5.18,8.8,,47.59359,-54.27349
2018-10-25 04:10:00+00:00,109.0,109.0,4.12,6.75,,47.59359,-54.27349
2018-10-25 04:20:00+00:00,127.0,140.0,6.03,9.19,,47.59359,-54.27349
2018-10-25 04:30:00+00:00,119.0,137.0,5.05,9.18,,47.59359,-54.27349
2018-10-25 04:40:00+00:00,129.0,140.0,4.19,6.44,,47.59359,-54.27349
2018-10-25 04:50:00+00:00,127.0,141.0,5.18,7.52,,47.59359,-54.27349
2018-10-25 05:00:00+00:00,116.0,106.0,6.52,10.81,,47.59359,-54.27349
2018-10-25 05:10:00+00:00,134.0,147.0,5.44,9.25,,47.59359,-54.27349
2018-10-25 05:20:00+00:00,115.0,133.0,6.14,10.86,,47.59359,-54.27349
2018-10-25 05:30:00+00:00,125.0,131.0,3.77,7.5,,47.59359,-54.27349
2018-10-25 05:40:00+00:00,111.0,150.0,2.79,4.82,,47.59359,-54.27349
2018-10-25 05:50:00+00:00,118.0,143.0,4.87,7.83,,47.59359,-54.27349
2018-10-25 06:00:00+00:00,111.0,101.0,4.64,8.73,,47.59359,-54.27349
2018-10-25 06:10:00+00:00,113.0,134.0,5.07,9.29,,47.59359,-54.27349
2018-10-25 06:20:00+00:00,123.0,105.0,4.59,8.33,,47.59359,-54.27349
2018-10-25 06:30:00+00:00,122.0,142.0,5.37,8.94,,47.59359,-54.27349
2018-10-25 06:40:00+00:00,119.0,107.0,5.25,8.72,,47.59359,-54.27349
2018-10-25 06:50:00+00:00,125.0,137.0,5.44,8.1,,47.59359,-54.27349
2018-10-25 07:00:00+00:00,121.0,116.0,4.08,7.03,,47.59359,-54.27349
2018-10-25 07:10:00+00:00,135.0,137.0,8.33,10.26,,47.59359,-54.27349
2018-10-25 07:20:00+00:00,138.0,136.0,9.28,11.99,,47.59359,-54.27349
2018-10-25 07:30:00+00:00,137.0,138.0,10.83,12.57,,47.59359,-54.27349
2018-10-25 07:40:00+00:00,133.0,137.0,9.64,11.19,,47.59359,-54.27349
2018-10-25 07:50:00+00:00,135.0,140.0,7.52,9.41,,47.59359,-54.27349
2018-10-25 08:00:00+00:00,136.0,133.0,8.65,11.54,,47.59359,-54.27349
2018-10-25 08:10:00+00:00,133.0,139.0,8.35,10.15,,47.59359,-54.27349
2018-10-25 08:20:00+00:00,129.0,140.0,6.93,9.41,,47.59359,-54.27349
2018-10-25 08:30:00+00:00,110.0,118.0,5.51,9.97,,47.59359,-54.27349
2018-10-25 08:40:00+00:00,114.0,133.0,4.7,7.81,,47.59359,-54.27349
2018-10-25 08:50:00+00:00,122.0,106.0,6.02,11.55,,47.59359,-54.27349
2018-10-25 09:00:00+00:00,106.0,119.0,4.37,7.14,,47.59359,-54.27349
2018-10-25 09:10:00+00:00,106.0,108.0,5.51,9.85,,47.59359,-54.27349
2018-10-25 09:20:00+00:00,91.0,94.0,6.82,10.23,,47.59359,-54.27349
2018-10-25 09:30:00+00:00,106.0,139.0,5.62,9.3,,47.59359,-54.27349
2018-10-25 09:40:00+00:00,103.0,114.0,4.65,7.73,,47.59359,-54.27349
2018-10-25 09:50:00+00:00,118.0,135.0,4.55,9.0,,47.59359,-54.27349
2018-10-25 10:00:00+00:00,114.0,89.0,5.72,8.55,,47.59359,-54.27349
2018-10-25 10:10:00+00:00,119.0,131.0,5.64,8.89,,47.59359,-54.27349
2018-10-25 10:20:00+00:00,112.0,102.0,5.11,9.14,,47.59359,-54.27349
2018-10-25 10:30:00+00:00,115.0,111.0,5.1,8.4,,47.59359,-54.27349
2018-10-25 10:40:00+00:00,123.0,132.0,5.88,9.67,,47.59359,-54.27349
2018-10-25 10:50:00+00:00,117.0,123.0,6.13,9.57,,47.59359,-54.27349
2018-10-25 11:00:00+00:00,108.0,142.0,5.68,9.47,,47.59359,-54.27349
2018-10-25 11:10:00+00:00,110.0,141.0,5.87,9.6,,47.59359,-54.27349
2018-10-25 11:20:00+00:00,103.0,101.0,5.03,8.95,,47.59359,-54.27349
2018-10-25 11:30:00+00:00,110.0,107.0,7.32,11.71,,47.59359,-54.27349
2018-10-25 11:40:00+00:00,111.0,114.0,4.74,6.69,,47.59359,-54.27349
2018-10-25 11:50:00+00:00,95.0,89.0,5.91,9.31,,47.59359,-54.27349
2018-10-25 12:00:00+00:00,99.0,108.0,4.47,6.82,,47.59359,-54.27349
2018-10-25 12:10:00+00:00,119.0,145.0,3.57,5.94,,47.59359,-54.27349
2018-10-25 12:20:00+00:00,123.0,141.0,4.08,7.07,,47.59359,-54.27349
2018-10-25 12:30:00+00:00,119.0,130.0,4.78,7.32,,47.59359,-54.27349
2018-10-25 12:40:00+00:00,112.0,104.0,4.66,7.9,,47.59359,-54.27349
2018-10-25 12:50:00+00:00,110.0,126.0,4.69,9.17,,47.59359,-54.27349
2018-10-25 13:00:00+00:00,109.0,130.0,3.96,6.26,,47.59359,-54.27349
2018-10-25 13:10:00+00:00,92.0,103.0,3.94,5.76,,47.59359,-54.27349
2018-10-25 13:20:00+00:00,95.0,91.0,2.25,4.22,,47.59359,-54.27349
2018-10-25 13:30:00+00:00,109.0,116.0,2.75,5.52,,47.59359,-54.27349
2018-10-25 13:40:00+00:00,111.0,117.0,3.61,6.28,,47.59359,-54.27349
2018-10-25 13:50:00+00:00,123.0,130.0,3.95,6.9,,47.59359,-54.27349
2018-10-25 14:00:00+00:00,129.0,137.0,4.9,6.72,,47.59359,-54.27349
2018-10-25 14:10:00+00:00,146.0,144.0,4.94,6.58,,47.59359,-54.27349
2018-10-25 14:20:00+00:00,155.0,154.0,4.67,5.43,,47.59359,-54.27349
2018-10-25 14:30:00+00:00,162.0,160.0,8.32,9.81,,47.59359,-54.27349
2018-10-25 14:40:00+00:00,169.0,171.0,8.11,9.46,,47.59359,-54.27349
2018-10-25 14:50:00+00:00,172.0,171.0,9.21,10.59,,47.59359,-54.27349
2018-10-25 15:00:00+00:00,171.0,169.0,9.36,10.69,,47.59359,-54.27349
2018-10-25 15:10:00+00:00,167.0,165.0,10.02,11.13,,47.59359,-54.27349
2018-10-25 15:20:00+00:00,174.0,177.0,10.65,11.97,,47.59359,-54.27349
2018-10-25 15:30:00+00:00,175.0,174.0,10.42,11.93,,47.59359,-54.27349
2018-10-25 15:40:00+00:00,175.0,175.0,10.57,11.65,,47.59359,-54.27349
2018-10-25 15:50:00+00:00,173.0,174.0,10.76,12.22,,47.59359,-54.27349
2018-10-25 16:00:00+00:00,179.0,181.0,11.26,12.85,,47.59359,-54.27349
2018-10-25 16:10:00+00:00,184.0,181.0,9.03,9.99,,47.59359,-54.27349
2018-10-25 16:20:00+00:00,185.0,185.0,9.5,10.58,,47.59359,-54.27349
2018-10-25 16:30:00+00:00,188.0,188.0,8.64,9.29,,47.59359,-54.27349
2018-10-25 16:40:00+00:00,191.0,190.0,7.54,7.99,,47.59359,-54.27349
2018-10-25 16:50:00+00:00,194.0,191.0,10.53,11.68,,47.59359,-54.27349
2018-10-25 17:00:00+00:00,200.0,203.0,10.0,11.05,,47.59359,-54.27349
2018-10-25 17:10:00+00:00,211.0,212.0,8.65,9.61,,47.59359,-54.27349
2018-10-25 17:20:00+00:00,208.0,202.0,10.57,11.97,,47.59359,-54.27349
2018-10-25 17:30:00+00:00,225.0,228.0,11.1,13.09,,47.59359,-54.27349
2018-10-25 17:40:00+00:00,231.0,230.0,10.28,12.29,,47.59359,-54.27349
2018-10-25 17:50:00+00:00,221.0,219.0,9.08,10.13,,47.59359,-54.27349
2018-10-25 18:00:00+00:00,225.0,219.0,7.88,8.87,,47.59359,-54.27349
2018-10-25 18:10:00+00:00,231.0,224.0,8.76,9.78,,47.59359,-54.27349
2018-10-25 18:20:00+00:00,227.0,222.0,7.6,8.59,,47.59359,-54.27349
2018-10-25 18:30:00+00:00,232.0,232.0,7.77,8.78,,47.59359,-54.27349
2018-10-25 18:40:00+00:00,231.0,230.0,7.45,8.63,,47.59359,-54.27349
2018-10-25 18:50:00+00:00,226.0,229.0,6.3,7.09,,47.59359,-54.27349
2018-10-25 19:00:00+00:00,214.0,215.0,5.75,6.27,,47.59359,-54.27349
2018-10-25 19:10:00+00:00,219.0,220.0,5.73,6.47,,47.59359,-54.27349
2018-10-25 19:20:00+00:00,220.0,217.0,5.78,6.8,,47.59359,-54.27349
2018-10-25 19:30:00+00:00,216.0,215.0,5.58,6.32,,47.59359,-54.27349
2018-10-25 19:40:00+00:00,225.0,224.0,6.23,6.88,,47.59359,-54.27349
2018-10-25 19:50:00+00:00,235.0,239.0,6.45,7.2,,47.59359,-54.27349
2018-10-25 20:00:00+00:00,231.0,230.0,5.5,6.06,,47.59359,-54.27349
2018-10-25 20:10:00+00:00,218.0,219.0,5.5,6.06,,47.59359,-54.27349
2018-10-25 20:20:00+00:00,221.0,223.0,5.92,6.43,,47.59359,-54.27349
2018-10-25 20:30:00+00:00,223.0,227.0,5.63,6.07,,47.59359,-54.27349
2018-10-25 20:40:00+00:00,228.0,230.0,4.4,4.83,,47.59359,-54.27349
2018-10-25 20:50:00+00:00,242.0,262.0,2.94,3.62,,47.59359,-54.27349
2018-10-25 21:00:00+00:00,253.0,256.0,2.78,3.44,,47.59359,-54.27349
2018-10-25 21:10:00+00:00,244.0,246.0,2.59,3.02,,47.59359,-54.27349
2018-10-25 21:20:00+00:00,248.0,246.0,2.2,2.62,,47.59359,-54.27349
2018-10-25 21:30:00+00:00,268.0,256.0,1.68,1.99,,47.59359,-54.27349
2018-10-25 21:40:00+00:00,317.0,320.0,1.87,2.16,,47.59359,-54.27349
2018-10-25 21:50:00+00:00,333.0,340.0,1.36,1.69,,47.59359,-54.27349
2018-10-25 22:00:00+00:00,319.0,320.0,2.02,2.36,,47.59359,-54.27349
2018-10-25 22:10:00+00:00,261.0,260.0,1.69,1.91,,47.59359,-54.27349
2018-10-25 22:20:00+00:00,271.0,261.0,2.28,2.55,,47.59359,-54.27349
2018-10-25 22:30:00+00:00,274.0,271.0,2.6,2.94,,47.59359,-54.27349
2018-10-25 22:40:00+00:00,253.0,253.0,2.79,3.12,,47.59359,-54.27349
2018-10-25 22:50:00+00:00,259.0,259.0,3.4,3.83,,47.59359,-54.27349
2018-10-25 23:00:00+00:00,224.0,230.0,4.32,4.96,,47.59359,-54.27349
2018-10-25 23:10:00+00:00,233.0,233.0,4.09,4.49,,47.59359,-54.27349
2018-10-25 23:20:00+00:00,243.0,244.0,3.01,3.54,,47.59359,-54.27349
2018-10-25 23:30:00+00:00,244.0,237.0,1.76,2.01,,47.59359,-54.27349
2018-10-25 23:40:00+00:00,221.0,220.0,5.03,5.72,,47.59359,-54.27349
2018-10-25 23:50:00+00:00,229.0,230.0,4.5,5.15,,47.59359,-54.27349
